Surface/Precipitation History
12/01/2016 13:05  to  12/2/2016 13:05
Change End Date:
Date/Time
(MST)
Sf
Temp Chem Water Layer Surface Precipitation
Sfc Pvt Sub Frz Factor Pct Dpth DpthThk IcePct Cond Salin FI Type Intens Accum Rate
12/02/2016 12:56 Wet 35.6F - 33F 32F 95 0% 0.00 in - 0% 3 mhos 0 - Yes - - -
12/02/2016 12:48 Wet 35.8F - 33F 32F 95 0% 0.00 in - 0% 3 mhos 0 - Yes - - -
12/02/2016 12:41 Wet 36.1F - 33F 32F 95 0% 0.00 in - 0% 3 mhos 0 - Yes - - -
12/02/2016 12:38 Wet 34.9F - 33F 32F 95 0% 0.00 in - 0% 2 mhos 0 - Yes - - -
12/02/2016 12:28 Wet 35.4F - 33F 32F 95 0% 0.00 in - 0% 4 mhos 0 - Yes - - -
12/02/2016 12:26 Wet 35.8F - 33F 32F 95 0% 0.00 in - 0% 6 mhos 0 - None None - -
12/02/2016 12:18 Wet 33.6F - 33F 32F 95 0% 0.00 in - 0% 6 mhos 0 - Yes - - -
12/02/2016 12:11 Wet 34.5F - 33F 32F 95 0% 0.00 in - 0% 7 mhos 0 - Yes - - -
12/02/2016 12:08 Wet 32.5F - 33F 32F 95 0% 0.00 in - 0% 5 mhos 0 - Yes - - -
12/02/2016 11:58 Ice Warning 31.5F - 33F 32F 95 0% - - 100% 9 mhos 0 - Yes - - -
12/02/2016 11:56 Ice Warning 31.3F - 33F 32F 95 0% - - 100% 9 mhos 0 - Yes - - -
12/02/2016 11:48 Ice Warning 30.9F - 33F 32F 95 0% - - 100% 6 mhos 0 - Yes - - -
12/02/2016 11:41 Ice Warning 32.0F - 33F 32F 95 0% - - 100% 1 mhos 0 - None None - -
12/02/2016 11:38 Ice Warning 31.6F - 33F 32F 60 0% - - 100% 1 mhos 0 - Yes - - -
12/02/2016 11:28 Ice Warning 31.1F - 33F 32F 95 0% - - 100% 1 mhos 0 - None None - -
Date/Time
(MST)
Sf
Temp Chem Water Layer Surface Precipitation
Sfc Pvt Sub Frz Factor Pct Dpth DpthThk IcePct Cond Salin FI Type Intens Accum Rate
12/02/2016 11:17 Ice Warning 30.6F - 33F 32F 95 0% - - 100% 0 mhos 0 - None None - -
12/02/2016 11:11 Ice Warning 29.7F - 33F 32F 70 0% - - 100% 0 mhos 0 - Yes - - -
12/02/2016 11:07 Ice Warning 29.5F - 33F 32F 65 0% - - 100% 0 mhos 0 - None None - -
12/02/2016 10:57 Ice Warning 26.8F - 33F 32F 60 0% - - 100% 0 mhos 0 - None None - -
12/02/2016 10:56 Ice Warning 25.9F - 33F 32F 60 0% - - 100% 0 mhos 0 - None None - -
12/02/2016 10:47 Ice Warning 25.7F - 33F 32F 60 0% - - 100% 0 mhos 0 - None None - -
12/02/2016 10:37 Ice Warning 24.6F - 33F 32F 55 0% - - 100% 0 mhos 0 - None None - -
12/02/2016 10:27 Ice Warning 24.1F - 33F 32F 55 0% - - 100% 0 mhos 0 - None None - -
12/02/2016 10:26 Ice Warning 24.1F - 33F 32F 55 0% - - 100% 0 mhos 0 - None None - -
12/02/2016 10:17 Ice Warning 23.5F - 33F 32F 55 0% - - 100% 0 mhos 0 - None None - -
12/02/2016 10:12 Ice Warning 23.4F - 33F 32F 50 0% - - 100% 0 mhos 0 - None None - -
12/02/2016 10:07 Ice Warning 23.4F - 33F 32F 50 0% - - 100% 0 mhos 0 - None None - -
12/02/2016 09:57 Ice Warning 23.5F - 33F 32F 50 0% - - 100% 0 mhos 0 - None None - -
12/02/2016 09:56 Ice Warning 23.5F - 33F 32F 50 0% - - 100% 0 mhos 0 - None None - -
12/02/2016 09:47 Ice Warning 23.5F - 33F 32F 50 0% - - 100% 0 mhos 0 - None None - -
Date/Time
(MST)
Sf
Temp Chem Water Layer Surface Precipitation
Sfc Pvt Sub Frz Factor Pct Dpth DpthThk IcePct Cond Salin FI Type Intens Accum Rate
12/02/2016 09:37 Ice Warning 23.5F - 33F 32F 50 0% - - 100% 0 mhos 0 - None None - -
12/02/2016 09:27 Ice Warning 23.7F - 33F 32F 55 0% - - 100% 0 mhos 0 - None None - -
12/02/2016 09:26 Ice Warning 23.7F - 33F 32F 55 0% - - 100% 0 mhos 0 - None None - -
12/02/2016 09:17 Ice Warning 23.7F - 33F 32F 50 0% - - 100% 0 mhos 0 - None None - -
12/02/2016 09:07 Ice Warning 23.7F - 33F 32F 50 0% - - 100% 0 mhos 0 - None None - -
12/02/2016 08:57 Ice Warning 23.2F - 33F 32F 50 0% - - 100% 0 mhos 0 - None None - -
12/02/2016 08:56 Ice Warning 23.0F - 33F 32F 45 0% - - 100% 0 mhos 0 - None None - -
12/02/2016 08:47 Ice Warning 22.6F - 33F 32F 45 0% - - 100% 0 mhos 0 - None None - -
12/02/2016 08:41 Ice Warning 22.5F - 33F 32F 45 0% - - 100% 0 mhos 0 - None None - -
12/02/2016 08:37 Ice Warning 22.5F - 33F 32F 45 0% - - 100% 0 mhos 0 - None None - -
12/02/2016 08:27 Ice Warning 22.1F - 33F 32F 40 0% - - 100% 0 mhos 0 - None None - -
12/02/2016 08:26 Ice Warning 22.1F - 33F 32F 40 0% - - 100% 0 mhos 0 - None None - -
12/02/2016 08:17 Ice Warning 21.7F - 33F 32F 40 0% - - 100% 0 mhos 0 - None None - -
12/02/2016 08:11 Ice Warning 21.4F - 33F 32F 45 0% - - 100% 0 mhos 0 - None None - -
12/02/2016 08:07 Ice Warning 21.2F - 33F 32F 45 0% - - 100% 0 mhos 0 - None None - -
Date/Time
(MST)
Sf
Temp Chem Water Layer Surface Precipitation
Sfc Pvt Sub Frz Factor Pct Dpth DpthThk IcePct Cond Salin FI Type Intens Accum Rate
12/02/2016 07:56 Ice Warning 20.8F - 33F 32F 45 0% - - 100% 0 mhos 0 - None None - -
12/02/2016 07:56 Ice Warning 20.8F - 33F 32F 45 0% - - 100% 0 mhos 0 - None None - -
12/02/2016 07:46 Ice Warning 20.8F - 33F 32F 45 0% - - 100% 0 mhos 0 - None None - -
12/02/2016 07:36 Ice Warning 21.6F - 33F 32F 40 0% - - 100% 0 mhos 0 - None None - -
12/02/2016 07:26 Ice Warning 22.1F - 33F 32F 40 0% - - 100% 0 mhos 0 - None None - -
12/02/2016 07:16 Ice Warning 22.5F - 33F 32F 40 0% - - 100% 0 mhos 0 - None None - -
12/02/2016 07:10 Ice Warning 22.8F - 33F 32F 40 0% - - 100% 0 mhos 0 - None None - -
12/02/2016 07:06 Ice Warning 22.8F - 33F 32F 40 0% - - 100% 0 mhos 0 - None None - -
12/02/2016 06:56 Ice Warning 23.2F - 33F 32F 40 0% - - 100% 0 mhos 0 - None None - -
12/02/2016 06:56 Ice Warning 23.2F - 33F 32F 40 0% - - 100% 0 mhos 0 - None None - -
12/02/2016 06:46 Ice Warning 23.2F - 33F 32F 40 0% - - 100% 0 mhos 0 - None None - -
12/02/2016 06:41 Ice Warning 23.4F - 33F 32F 40 0% - - 100% 0 mhos 0 - None None - -
12/02/2016 06:36 Ice Warning 23.4F - 33F 32F 35 0% - - 100% 0 mhos 0 - None None - -
12/02/2016 06:26 Ice Warning 23.2F - 33F 32F 35 0% - - 100% 0 mhos 0 - None None - -
12/02/2016 06:26 Ice Warning 23.2F - 33F 32F 35 0% - - 100% 0 mhos 0 - None None - -
Date/Time
(MST)
Sf
Temp Chem Water Layer Surface Precipitation
Sfc Pvt Sub Frz Factor Pct Dpth DpthThk IcePct Cond Salin FI Type Intens Accum Rate
12/02/2016 06:16 Ice Warning 23.4F - 33F 32F 25 0% - - 100% 0 mhos 0 - None None - -
12/02/2016 06:11 Ice Warning 23.4F - 33F 32F 25 0% - - 100% 0 mhos 0 - None None - -
12/02/2016 06:06 Ice Warning 23.5F - 33F 32F 25 0% - - 100% 0 mhos 0 - None None - -
12/02/2016 05:56 Ice Warning 23.5F - 33F 32F 15 0% - - 100% 0 mhos 0 - None None - -
12/02/2016 05:56 Ice Warning 23.5F - 33F 32F 15 0% - - 100% 0 mhos 0 - None None - -
12/02/2016 05:46 Ice Warning 23.5F - 33F 32F 5 0% - - 100% 0 mhos 0 - None None - -
12/02/2016 05:40 Ice Warning 23.5F - 33F 32F 5 0% - - 100% 0 mhos 0 - None None - -
12/02/2016 05:36 Ice Warning 23.5F - 33F 32F 5 0% - - 100% 0 mhos 0 - None None - -
12/02/2016 05:26 Ice Warning 23.7F - 33F 32F 5 0% - - 100% 0 mhos 0 - None None - -
12/02/2016 05:26 Ice Warning 23.7F - 33F 32F 5 0% - - 100% 0 mhos 0 - Yes - - -
12/02/2016 05:16 Ice Warning 23.5F - 33F 32F 5 0% - - 100% 0 mhos 0 - Yes - - -
12/02/2016 05:11 Ice Warning 23.5F - 33F 32F 5 0% - - 100% 0 mhos 0 - None None - -
12/02/2016 05:06 Ice Warning 24.4F - 33F 32F 5 0% - - 100% 0 mhos 0 - Yes - - -
12/02/2016 04:56 Ice Warning 24.1F - 33F 32F 5 0% - - 100% 0 mhos 0 - None None - -
12/02/2016 04:56 Ice Warning 24.1F - 33F 32F 5 0% - - 100% 0 mhos 0 - None None - -
Date/Time
(MST)
Sf
Temp Chem Water Layer Surface Precipitation
Sfc Pvt Sub Frz Factor Pct Dpth DpthThk IcePct Cond Salin FI Type Intens Accum Rate
12/02/2016 04:45 Ice Warning 24.4F - 33F 32F 10 0% - - 100% 0 mhos 0 - Yes - - -
12/02/2016 04:40 Ice Warning 24.6F - 33F 32F 5 0% - - 100% 0 mhos 0 - Yes - - -
12/02/2016 04:35 Ice Warning 24.8F - 33F 32F 10 0% - - 100% 0 mhos 0 - Yes - - -
12/02/2016 04:26 Ice Warning 24.8F - 33F 32F 10 0% - - 100% 0 mhos 0 - Yes - - -
12/02/2016 04:25 Ice Warning 24.8F - 33F 32F 10 0% - - 100% 0 mhos 0 - Yes - - -
12/02/2016 04:15 Ice Warning 25.2F - 33F 32F 10 0% - - 100% 0 mhos 0 - Yes - - -
12/02/2016 04:11 Ice Warning 25.3F - 33F 32F 10 0% - - 100% 0 mhos 0 - Yes - - -
12/02/2016 04:05 Ice Warning 25.5F - 33F 32F 10 0% - - 100% 0 mhos 0 - Yes - - -
12/02/2016 03:56 Ice Warning 25.5F - 33F 32F 10 0% - - 100% 0 mhos 0 - Yes - - -
12/02/2016 03:55 Ice Warning 25.5F - 33F 32F 10 0% - - 100% 0 mhos 0 - Yes - - -
12/02/2016 03:45 Ice Warning 25.5F - 33F 32F 10 0% - - 100% 0 mhos 0 - Yes - - -
12/02/2016 03:40 Ice Warning 25.5F - 33F 32F 10 0% - - 100% 0 mhos 0 - Yes - - -
12/02/2016 03:35 Ice Warning 25.7F - 33F 32F 10 0% - - 100% 0 mhos 0 - Yes - - -
12/02/2016 03:26 Ice Warning 25.5F - 33F 32F 10 0% - - 100% 0 mhos 0 - Yes - - -
12/02/2016 03:25 Ice Warning 25.5F - 33F 32F 10 0% - - 100% 0 mhos 0 - Yes - - -
Date/Time
(MST)
Sf
Temp Chem Water Layer Surface Precipitation
Sfc Pvt Sub Frz Factor Pct Dpth DpthThk IcePct Cond Salin FI Type Intens Accum Rate
12/02/2016 03:15 Ice Warning 25.5F - 33F 32F 10 0% - - 100% 0 mhos 0 - None None - -
12/02/2016 03:11 Ice Warning 25.7F - 33F 32F 10 0% - - 100% 0 mhos 0 - Yes - - -
12/02/2016 03:05 Ice Warning 25.7F - 33F 32F 10 0% - - 100% 0 mhos 0 - None None - -
12/02/2016 02:56 Ice Warning 25.7F - 33F 32F 10 0% - - 100% 0 mhos 0 - None None - -
12/02/2016 02:55 Ice Warning 25.7F - 33F 32F 10 0% - - 100% 0 mhos 0 - None None - -
12/02/2016 02:45 Ice Warning 26.1F - 33F 32F 10 0% - - 100% 0 mhos 0 - None None - -
12/02/2016 02:40 Ice Warning 26.1F - 33F 32F 10 0% - - 100% 0 mhos 0 - Yes - - -
12/02/2016 02:35 Ice Warning 25.9F - 33F 32F 10 0% - - 100% 0 mhos 0 - None None - -
12/02/2016 02:26 Ice Warning 26.1F - 33F 32F 10 0% - - 100% 0 mhos 0 - Yes - - -
12/02/2016 02:25 Ice Warning 26.2F - 33F 32F 10 0% - - 100% 0 mhos 0 - Yes - - -
12/02/2016 02:15 Ice Warning 26.8F - 33F 32F 10 0% - - 100% 0 mhos 0 - Yes - - -
12/02/2016 02:10 Ice Warning 27.0F - 33F 32F 10 0% - - 100% 0 mhos 0 - Yes - - -
12/02/2016 02:05 Ice Warning 27.0F - 33F 32F 10 0% - - 100% 0 mhos 0 - Yes - - -
12/02/2016 01:56 Ice Warning 26.8F - 33F 32F 10 0% - - 100% 0 mhos 0 - Yes - - -
12/02/2016 01:55 Ice Warning 27.0F - 33F 32F 10 0% - - 100% 0 mhos 0 - Yes - - -
Date/Time
(MST)
Sf
Temp Chem Water Layer Surface Precipitation
Sfc Pvt Sub Frz Factor Pct Dpth DpthThk IcePct Cond Salin FI Type Intens Accum Rate
12/02/2016 01:45 Ice Warning 27.0F - 33F 32F 10 0% - - 100% 0 mhos 0 - Yes - - -
12/02/2016 01:41 Ice Warning 27.0F - 33F 32F 10 0% - - 100% 0 mhos 0 - Yes - - -
12/02/2016 01:34 Ice Warning 27.3F - 33F 32F 10 0% - - 100% 0 mhos 0 - Yes - - -
12/02/2016 01:26 Ice Warning 27.1F - 33F 32F 10 0% - - 100% 0 mhos 0 - Yes - - -
12/02/2016 01:24 Ice Warning 27.3F - 33F 32F 10 0% - - 100% 0 mhos 0 - Yes - - -
12/02/2016 01:14 Ice Warning 27.3F - 33F 32F 10 0% - - 100% 0 mhos 0 - Yes - - -
12/02/2016 01:11 Ice Warning 27.1F - 33F 32F 10 0% - - 100% 0 mhos 0 - Yes - - -
12/02/2016 01:04 Ice Warning 27.0F - 33F 32F 10 0% - - 100% 0 mhos 0 - Yes - - -
12/02/2016 00:56 Ice Warning 27.1F - 33F 32F 10 0% - - 100% 0 mhos 0 - Yes - - -
12/02/2016 00:54 Ice Warning 27.1F - 33F 32F 10 0% - - 100% 0 mhos 0 - Yes - - -
12/02/2016 00:44 Ice Warning 27.0F - 33F 32F 10 0% - - 100% 0 mhos 0 - Yes - - -
12/02/2016 00:40 Ice Warning 26.8F - 33F 32F 10 0% - - 100% 0 mhos 0 - Yes - - -
12/02/2016 00:34 Ice Warning 27.0F - 33F 32F 10 0% - - 100% 0 mhos 0 - Yes - - -
12/02/2016 00:26 Ice Warning 27.0F - 33F 32F 10 0% - - 100% 0 mhos 0 - Yes - - -
12/02/2016 00:24 Ice Warning 27.0F - 33F 32F 10 0% - - 100% 0 mhos 0 - Yes - - -
Date/Time
(MST)
Sf
Temp Chem Water Layer Surface Precipitation
Sfc Pvt Sub Frz Factor Pct Dpth DpthThk IcePct Cond Salin FI Type Intens Accum Rate
12/02/2016 00:14 Ice Warning 26.8F - 33F 32F 10 0% - - 100% 0 mhos 0 - Yes - - -
12/02/2016 00:10 Ice Warning 26.8F - 33F 32F 10 0% - - 100% 0 mhos 0 - Yes - - -
12/02/2016 00:04 Ice Warning 26.8F - 33F 32F 10 0% - - 100% 0 mhos 0 - Yes - - -
12/01/2016 23:56 Ice Warning 26.6F - 33F 32F 10 0% - - 100% 0 mhos 0 - Yes - - -
12/01/2016 23:54 Ice Warning 26.8F - 33F 32F 10 0% - - 100% 0 mhos 0 - Yes - - -
12/01/2016 23:44 Ice Warning 26.6F - 33F 32F 5 0% - - 100% 0 mhos 0 - Yes - - -
12/01/2016 23:40 Ice Warning 26.8F - 33F 32F 10 0% - - 100% 0 mhos 0 - Yes - - -
12/01/2016 23:34 Ice Warning 26.6F - 33F 32F 5 0% - - 100% 0 mhos 0 - Yes - - -
12/01/2016 23:25 Ice Warning 26.8F - 33F 32F 5 0% - - 100% 0 mhos 0 - Yes - - -
12/01/2016 23:24 Ice Warning 26.8F - 33F 32F 5 0% - - 100% 0 mhos 0 - Yes - - -
12/01/2016 23:14 Ice Warning 26.8F - 33F 32F 10 0% - - 100% 0 mhos 0 - Yes - - -
12/01/2016 23:11 Ice Warning 26.8F - 33F 32F 10 0% - - 100% 0 mhos 0 - Yes - - -
12/01/2016 23:04 Ice Warning 26.8F - 33F 32F 10 0% - - 100% 0 mhos 0 - Yes - - -
12/01/2016 22:56 Ice Warning 26.8F - 33F 32F 10 0% - - 100% 0 mhos 0 - Yes - - -
12/01/2016 22:54 Ice Warning 26.8F - 33F 32F 10 0% - - 100% 0 mhos 0 - Yes - - -
Date/Time
(MST)
Sf
Temp Chem Water Layer Surface Precipitation
Sfc Pvt Sub Frz Factor Pct Dpth DpthThk IcePct Cond Salin FI Type Intens Accum Rate
12/01/2016 22:44 Ice Warning 26.6F - 33F 32F 10 0% - - 100% 0 mhos 0 - Yes - - -
12/01/2016 22:41 Ice Warning 26.8F - 33F 32F 10 0% - - 100% 0 mhos 0 - Yes - - -
12/01/2016 22:34 Ice Warning 26.8F - 33F 32F 10 0% - - 100% 0 mhos 0 - Yes - - -
12/01/2016 22:26 Ice Warning 26.8F - 33F 32F 10 0% - - 100% 0 mhos 0 - Yes - - -
12/01/2016 22:23 Ice Warning 26.8F - 33F 32F 10 0% - - 100% 0 mhos 0 - Yes - - -
12/01/2016 22:13 Ice Warning 27.1F - 33F 32F 10 0% - - 100% 0 mhos 0 - Yes - - -
12/01/2016 22:10 Ice Warning 27.0F - 33F 32F 10 0% - - 100% 0 mhos 0 - Yes - - -
12/01/2016 22:03 Ice Warning 27.1F - 33F 32F 10 0% - - 100% 0 mhos 0 - Yes - - -
12/01/2016 21:56 Ice Warning 27.1F - 33F 32F 10 0% - - 100% 0 mhos 0 - Yes - - -
12/01/2016 21:53 Ice Warning 27.1F - 33F 32F 10 0% - - 100% 0 mhos 0 - Yes - - -
12/01/2016 21:43 Ice Warning 27.0F - 33F 32F 5 0% - - 100% 0 mhos 0 - Yes - - -
12/01/2016 21:40 Ice Warning 27.0F - 33F 32F 5 0% - - 100% 0 mhos 0 - Yes - - -
12/01/2016 21:33 Ice Warning 27.0F - 33F 32F 5 0% - - 100% 0 mhos 0 - Yes - - -
12/01/2016 21:26 Ice Warning 26.8F - 33F 32F 5 0% - - 100% 0 mhos 0 - Yes - - -
12/01/2016 21:23 Ice Warning 27.0F - 33F 32F 5 0% - - 100% 0 mhos 0 - Yes - - -
Date/Time
(MST)
Sf
Temp Chem Water Layer Surface Precipitation
Sfc Pvt Sub Frz Factor Pct Dpth DpthThk IcePct Cond Salin FI Type Intens Accum Rate
12/01/2016 21:13 Ice Warning 26.8F - 33F 32F 10 0% - - 100% 0 mhos 0 - Yes - - -
12/01/2016 21:10 Ice Warning 26.8F - 33F 32F 5 0% - - 100% 0 mhos 0 - Yes - - -
12/01/2016 21:03 Ice Warning 27.0F - 33F 32F 5 0% - - 100% 0 mhos 0 - Yes - - -
12/01/2016 20:56 Ice Warning 27.0F - 33F 32F 10 0% - - 100% 0 mhos 0 - Yes - - -
12/01/2016 20:53 Ice Warning 27.0F - 33F 32F 10 0% - - 100% 0 mhos 0 - Yes - - -
12/01/2016 20:43 Ice Warning 27.0F - 33F 32F 10 0% - - 100% 0 mhos 0 - Yes - - -
12/01/2016 20:41 Ice Warning 26.8F - 33F 32F 10 0% - - 100% 0 mhos 0 - Yes - - -
12/01/2016 20:33 Ice Warning 27.0F - 33F 32F 10 0% - - 100% 0 mhos 0 - Yes - - -
12/01/2016 20:26 Ice Warning 27.1F - 33F 32F 10 0% - - 100% 0 mhos 0 - Yes - - -
12/01/2016 20:23 Ice Warning 27.1F - 33F 32F 10 0% - - 100% 0 mhos 0 - Yes - - -
12/01/2016 20:13 Ice Warning 27.1F - 33F 32F 10 0% - - 100% 0 mhos 0 - Yes - - -
12/01/2016 20:11 Ice Warning 27.1F - 33F 32F 10 0% - - 100% 0 mhos 0 - Yes - - -
12/01/2016 20:03 Ice Warning 27.1F - 33F 32F 10 0% - - 100% 0 mhos 0 - Yes - - -
12/01/2016 19:56 Ice Warning 27.0F - 33F 32F 15 0% - - 100% 0 mhos 0 - Yes - - -
12/01/2016 19:53 Ice Warning 27.1F - 33F 32F 10 0% - - 100% 0 mhos 0 - Yes - - -
Date/Time
(MST)
Sf
Temp Chem Water Layer Surface Precipitation
Sfc Pvt Sub Frz Factor Pct Dpth DpthThk IcePct Cond Salin FI Type Intens Accum Rate
12/01/2016 19:43 Ice Warning 27.3F - 33F 32F 30 0% - - 100% 0 mhos 0 - Yes - - -
12/01/2016 19:41 Ice Warning 27.1F - 33F 32F 30 0% - - 100% 0 mhos 0 - Yes - - -
12/01/2016 19:33 Ice Warning 27.3F - 33F 32F 30 0% - - 100% 0 mhos 0 - Yes - - -
12/01/2016 19:26 Ice Warning 27.3F - 33F 32F 35 0% - - 100% 0 mhos 0 - Yes - - -
12/01/2016 19:23 Ice Warning 27.3F - 33F 32F 35 0% - - 100% 0 mhos 0 - Yes - - -
12/01/2016 19:13 Ice Warning 27.1F - 33F 32F 35 0% - - 100% 0 mhos 0 - Yes - - -
12/01/2016 19:11 Ice Warning 27.3F - 33F 32F 35 0% - - 100% 0 mhos 0 - Yes - - -
12/01/2016 19:02 Ice Warning 27.1F - 33F 32F 35 0% - - 100% 0 mhos 0 - Yes - - -
12/01/2016 18:56 Ice Warning 27.3F - 33F 32F 35 0% - - 100% 0 mhos 0 - Yes - - -
12/01/2016 18:52 Ice Warning 27.3F - 33F 32F 35 0% - - 100% 0 mhos 0 - Yes - - -
12/01/2016 18:42 Ice Warning 27.5F - 33F 32F 60 0% - - 100% 0 mhos 0 - Yes - - -
12/01/2016 18:41 Ice Warning 27.3F - 33F 32F 55 0% - - 100% 0 mhos 0 - Yes - - -
12/01/2016 18:32 Ice Warning 27.3F - 33F 32F 55 0% - - 100% 1 mhos 0 - Yes - - -
12/01/2016 18:22 Ice Warning 27.3F - 33F 32F 55 0% - - 100% 0 mhos 0 - Yes - - -
12/01/2016 18:12 Ice Warning 27.3F - 33F 32F 55 0% - - 100% 0 mhos 0 - Yes - - -
Date/Time
(MST)
Sf
Temp Chem Water Layer Surface Precipitation
Sfc Pvt Sub Frz Factor Pct Dpth DpthThk IcePct Cond Salin FI Type Intens Accum Rate
12/01/2016 18:11 Ice Warning 27.3F - 33F 32F 55 0% - - 100% 0 mhos 0 - Yes - - -
12/01/2016 18:02 Ice Warning 27.7F - 33F 32F 60 0% - - 100% 1 mhos 0 - Yes - - -
12/01/2016 17:56 Ice Warning 27.7F - 33F 32F 70 0% - - 100% 1 mhos 0 - Yes - - -
12/01/2016 17:52 Ice Warning 27.7F - 33F 32F 70 0% - - 100% 1 mhos 0 - Yes - - -
12/01/2016 17:42 Ice Warning 27.9F - 33F 32F 85 0% - - 100% 1 mhos 0 - Yes - - -
12/01/2016 17:41 Ice Warning 27.9F - 33F 32F 80 0% - - 100% 1 mhos 0 - Yes - - -
12/01/2016 17:32 Ice Warning 27.9F - 33F 32F 85 0% - - 100% 1 mhos 0 - Yes - - -
12/01/2016 17:26 Ice Warning 27.7F - 33F 32F 85 0% - - 100% 1 mhos 0 - Yes - - -
12/01/2016 17:22 Ice Warning 27.9F - 33F 32F 95 0% - - 100% 1 mhos 0 - Yes - - -
12/01/2016 17:12 Ice Warning 27.9F - 33F 32F 95 0% - - 100% 1 mhos 0 - Yes - - -
12/01/2016 17:11 Ice Warning 27.7F - 33F 32F 90 0% - - 100% 1 mhos 0 - Yes - - -
12/01/2016 17:02 Ice Warning 27.7F - 33F 32F 95 0% - - 100% 0 mhos 0 - Yes - - -
12/01/2016 16:56 Ice Warning 28.0F - 33F 32F 45 0% - - 100% 0 mhos 0 - Yes - - -
12/01/2016 16:52 Ice Warning 27.9F - 33F 32F 45 0% - - 100% 0 mhos 0 - Yes - - -
12/01/2016 16:42 Ice Warning 28.0F - 33F 32F 45 0% - - 100% 0 mhos 0 - None None - -
Date/Time
(MST)
Sf
Temp Chem Water Layer Surface Precipitation
Sfc Pvt Sub Frz Factor Pct Dpth DpthThk IcePct Cond Salin FI Type Intens Accum Rate
12/01/2016 16:41 Ice Warning 28.2F - 33F 32F 35 0% - - 100% 0 mhos 0 - None None - -
12/01/2016 16:32 Ice Warning 28.4F - 33F 32F 45 0% - - 100% 0 mhos 0 - None None - -
12/01/2016 16:26 Ice Warning 28.6F - 33F 32F 40 0% - - 100% 0 mhos 0 - Yes - - -
12/01/2016 16:22 Ice Warning 28.8F - 33F 32F 30 0% - - 100% 0 mhos 0 - Yes - - -
12/01/2016 16:12 Ice Warning 28.9F - 33F 32F 45 0% - - 100% 0 mhos 0 - None None - -
12/01/2016 16:10 Ice Warning 29.1F - 33F 32F 50 0% - - 100% 0 mhos 0 - None None - -
12/01/2016 16:02 Ice Warning 29.1F - 33F 32F 30 0% - - 100% 0 mhos 0 - None None - -
12/01/2016 15:56 Ice Warning 29.5F - 33F 32F 40 0% - - 100% 0 mhos 0 - Yes - - -
12/01/2016 15:52 Ice Warning 29.7F - 33F 32F 55 0% - - 100% 0 mhos 0 - Yes - - -
12/01/2016 15:42 Ice Warning 30.2F - 33F 32F 50 0% - - 100% 0 mhos 0 - Yes - - -
12/01/2016 15:41 Ice Warning 30.2F - 33F 32F 45 0% - - 100% 0 mhos 0 - Yes - - -
12/01/2016 15:32 Ice Warning 30.2F - 33F 32F 85 0% - - 100% 0 mhos 0 - Yes - - -
12/01/2016 15:26 Ice Warning 30.2F - 33F 32F 90 0% - - 100% 1 mhos 0 - Yes - - -
12/01/2016 15:21 Ice Warning 30.2F - 33F 32F 95 0% - - 100% 1 mhos 0 - Yes - - -
12/01/2016 15:11 Ice Warning 30.6F - 33F 32F 95 0% - - 100% 4 mhos 0 - Yes - - -
Date/Time
(MST)
Sf
Temp Chem Water Layer Surface Precipitation
Sfc Pvt Sub Frz Factor Pct Dpth DpthThk IcePct Cond Salin FI Type Intens Accum Rate
12/01/2016 15:11 Ice Warning 30.6F - 33F 32F 95 0% - - 100% 4 mhos 0 - Yes - - -
12/01/2016 15:01 Ice Warning 30.9F - 33F 32F 95 0% - - 100% 4 mhos 0 - None None - -
12/01/2016 14:56 Ice Warning 30.6F - 33F 32F 95 0% - - 100% 4 mhos 0 - None None - -
12/01/2016 14:51 Ice Warning 30.9F - 33F 32F 95 0% - - 100% 3 mhos 0 - Yes - - -
12/01/2016 14:41 Ice Warning 30.7F - 33F 32F 95 0% - - 100% 2 mhos 0 - Yes - - -
12/01/2016 14:41 Ice Warning 30.7F - 33F 32F 95 0% - - 100% 2 mhos 0 - Yes - - -
12/01/2016 14:31 Ice Warning 32.0F - 33F 32F 95 0% - - 100% 3 mhos 0 - Yes - - -
12/01/2016 14:26 Wet 32.5F - 33F 32F 95 0% 0.00 in - 0% 3 mhos 0 - Yes - - -
12/01/2016 14:21 Wet 32.9F - 33F 32F 95 0% 0.00 in - 0% 3 mhos 0 - Yes - - -
12/01/2016 14:11 Wet 33.1F - 33F 32F 95 0% 0.00 in - 0% 3 mhos 0 - None None - -
12/01/2016 14:10 Wet 33.1F - 33F 32F 95 0% 0.00 in - 0% 3 mhos 0 - None None - -
12/01/2016 14:01 Wet 33.1F - 33F 32F 95 0% 0.00 in - 0% 3 mhos 0 - Yes - - -
12/01/2016 13:55 Wet 33.3F - 33F 32F 95 0% 0.00 in - 0% 3 mhos 0 - None None - -
12/01/2016 13:51 Wet 33.6F - 33F 32F 95 0% 0.00 in - 0% 3 mhos 0 - None None - -
12/01/2016 13:41 Wet 34.2F - 33F 32F 95 0% 0.00 in - 0% 3 mhos 0 - None None - -
Date/Time
(MST)
Sf
Temp Chem Water Layer Surface Precipitation
Sfc Pvt Sub Frz Factor Pct Dpth DpthThk IcePct Cond Salin FI Type Intens Accum Rate
12/01/2016 13:41 Wet 34.2F - 33F 32F 95 0% 0.00 in - 0% 3 mhos 0 - None None - -
12/01/2016 13:31 Wet 33.6F - 33F 32F 95 0% 0.00 in - 0% 4 mhos 0 - None None - -
12/01/2016 13:26 Wet 33.1F - 33F 32F 95 0% 0.00 in - 0% 4 mhos 0 - None None - -
12/01/2016 13:21 Wet 32.5F - 33F 32F 95 0% 0.00 in - 0% 5 mhos 0 - Yes - - -
12/01/2016 13:11 Ice Warning 32.0F - 33F 32F 95 0% - - 100% 4 mhos 0 - None None - -
Change End Date:

Copyright © 1998-2015 Vaisala, Inc.
All Rights Reserved
Send comments about the data to:
SCAN Web ® is a registered trademark of Vaisala, Inc.
SCAN Web Version 6.0